sat.trackr.live / text

‹ back to catalog

STARLINK-4782

NORAD 53933 · 2022-119AZ

PAYLOAD ACTIVE UNKNOWN

§ Identity

Operator
Country
US
Launch date
2022-09-24
Launch site
AFETR
Launch vehicle
Mass (kg)
RCS (m²)

Purposes: comms

External: N2YO · Heavens-Above · Gunter

§ Orbital elements

Epoch: 2026-05-24T21:48:30.754656Z

Period
95.44 min
Inclination
53.2144°
Eccentricity
0.0001232
Mean motion
15.08839399 rev/d
Perigee alt
538.9 km
Apogee alt
540.6 km
Semi-major
6,917.9 km
B*
-8.3935e-6
RAAN
321.8170°
Arg perigee
78.4295°
Mean anomaly
281.6836°
Rev number
20,347

§ Raw data

STARLINK-47821 53933U 22119AZ  26144.90868929 -.00000421  00000+0 -83935-5 0  99972 53933  53.2144 321.8170 0001232  78.4295 281.6836 15.08839399203474

JSON: /api/v1/satellites/53933 · /tle

For live sub-satellite position, see the globe view (requires WebGL).

§ Visibility from observer

Set your observer location to see the next 7 days of passes ≥ 10°. The values pass through the URL so the page stays shareable.

No JS? Fill the form by hand. The geolocation button needs JavaScript.